EN

Hourly Weather Dzikow

Today, 20 October, Tuesday

Time Temperature Precipitation Wind Pressure Humidity
00:00 +7°C° 0 mm 1 mps 755 mmHg 88%
01:00 +7°C° 0 mm 1 mps 755 mmHg 88%
02:00 +7°C° 0 mm 1 mps 755 mmHg 87%
03:00 +7°C° 0 mm 1 mps 754 mmHg 86%
04:00 +5°C° 0 mm 2 mps 754 mmHg 86%
05:00 +5°C° 0 mm 2 mps 754 mmHg 85%
06:00 +5°C° 0 mm 2 mps 754 mmHg 85%
07:00 +5°C° 0 mm 2 mps 753 mmHg 86%
08:00 +7°C° 0 mm 3 mps 753 mmHg 81%
09:00 +7°C° 0 mm 4 mps 753 mmHg 76%
10:00 +10°C° 0 mm 4 mps 752 mmHg 70%
11:00 +11°C° 0 mm 4 mps 752 mmHg 67%
12:00 +12°C° 0 mm 4 mps 751 mmHg 64%
13:00 +13°C° 0 mm 3 mps 751 mmHg 61%
14:00 +12°C° 0 mm 3 mps 750 mmHg 64%
15:00 +12°C° 0 mm 3 mps 750 mmHg 66%
16:00 +13°C° 0 mm 2 mps 749 mmHg 69%
17:00 +11°C° 0 mm 3 mps 749 mmHg 71%
18:00 +10°C° 0 mm 3 mps 749 mmHg 73%
19:00 +10°C° 0 mm 3 mps 749 mmHg 76%
20:00 +10°C° 0 mm 3 mps 749 mmHg 74%
21:00 +10°C° 0 mm 3 mps 749 mmHg 73%
22:00 +10°C° 0 mm 3 mps 749 mmHg 71%
23:00 +10°C° 0 mm 3 mps 749 mmHg 71%

Tomorrow, 21 October, Wednesday

Time Temperature Precipitation Wind Pressure Humidity
00:00 +10°C° 0 mm 3 mps 749 mmHg 70%
01:00 +11°C° 0 mm 3 mps 749 mmHg 70%
02:00 +11°C° 0 mm 3 mps 749 mmHg 70%
03:00 +11°C° 0 mm 3 mps 748 mmHg 70%
04:00 +10°C° 0 mm 3 mps 748 mmHg 71%
05:00 +10°C° 0 mm 2 mps 748 mmHg 71%
06:00 +10°C° 0 mm 2 mps 748 mmHg 72%
07:00 +11°C° 0 mm 1 mps 748 mmHg 72%
08:00 +12°C° 0 mm 1 mps 748 mmHg 71%
09:00 +12°C° 0 mm 1 mps 748 mmHg 71%
10:00 +12°C° 0 mm 2 mps 748 mmHg 70%
11:00 +14°C° 0 mm 2 mps 748 mmHg 65%
12:00 +15°C° 0 mm 2 mps 748 mmHg 60%
13:00 +16°C° 0 mm 2 mps 748 mmHg 55%
14:00 +16°C° 0 mm 2 mps 747 mmHg 58%
15:00 +16°C° 0 mm 2 mps 747 mmHg 61%
16:00 +16°C° 0 mm 2 mps 747 mmHg 63%
17:00 +15°C° 0 mm 2 mps 747 mmHg 65%
18:00 +13°C° 0 mm 3 mps 747 mmHg 67%
19:00 +12°C° 0 mm 3 mps 748 mmHg 69%
20:00 +12°C° 0 mm 3 mps 748 mmHg 68%
21:00 +12°C° 0 mm 4 mps 748 mmHg 67%
22:00 +12°C° 0 mm 4 mps 748 mmHg 65%
23:00 +13°C° 0 mm 4 mps 748 mmHg 66%

Day after tomorrow, 22 October, Thursday

Time Temperature Precipitation Wind Pressure Humidity
00:00 +13°C° 0 mm 5 mps 749 mmHg 66%
01:00 +13°C° 0 mm 5 mps 749 mmHg 66%
02:00 +13°C° 0 mm 4 mps 749 mmHg 67%
03:00 +13°C° 0 mm 4 mps 749 mmHg 67%
04:00 +13°C° 0 mm 4 mps 749 mmHg 68%
05:00 +13°C° 0 mm 4 mps 749 mmHg 68%
06:00 +13°C° 0 mm 4 mps 749 mmHg 69%
07:00 +12°C° 0 mm 4 mps 749 mmHg 69%
08:00 +14°C° 0 mm 4 mps 749 mmHg 66%
09:00 +15°C° 0 mm 4 mps 749 mmHg 63%
10:00 +18°C° 0 mm 4 mps 750 mmHg 60%
11:00 +18°C° 0 mm 4 mps 749 mmHg 59%
12:00 +19°C° 0 mm 4 mps 749 mmHg 57%
13:00 +20°C° 0 mm 4 mps 749 mmHg 56%
14:00 +19°C° 0 mm 4 mps 749 mmHg 59%
15:00 +18°C° 0 mm 3 mps 749 mmHg 63%
16:00 +18°C° 0 mm 3 mps 749 mmHg 66%
17:00 +17°C° 0 mm 3 mps 749 mmHg 66%
18:00 +17°C° 0 mm 3 mps 749 mmHg 66%
19:00 +16°C° 0 mm 3 mps 749 mmHg 65%
20:00 +16°C° 0 mm 3 mps 749 mmHg 66%
21:00 +14°C° 0 mm 3 mps 749 mmHg 67%
22:00 +14°C° 0 mm 3 mps 749 mmHg 68%
23:00 +14°C° 0 mm 3 mps 749 mmHg 70%

23 October, Friday

Time Temperature Precipitation Wind Pressure Humidity
00:00 +14°C° 0 mm 4 mps 749 mmHg 71%
01:00 +14°C° 0 mm 4 mps 748 mmHg 72%
02:00 +14°C° 0 mm 4 mps 748 mmHg 72%
03:00 +14°C° 0 mm 4 mps 748 mmHg 73%
04:00 +14°C° 0 mm 4 mps 748 mmHg 74%
05:00 +14°C° 0.1 mm 4 mps 748 mmHg 76%
06:00 +14°C° 0.1 mm 4 mps 748 mmHg 78%
07:00 +14°C° 0.1 mm 4 mps 748 mmHg 80%
08:00 +14°C° 0 mm 4 mps 748 mmHg 79%
09:00 +15°C° 0 mm 5 mps 748 mmHg 78%
10:00 +16°C° 0 mm 5 mps 748 mmHg 76%
11:00 +17°C° 0 mm 4 mps 748 mmHg 74%
12:00 +17°C° 0 mm 4 mps 748 mmHg 72%
13:00 +18°C° 0 mm 4 mps 748 mmHg 71%
14:00 +17°C° 0 mm 3 mps 748 mmHg 73%
15:00 +17°C° 0 mm 2 mps 748 mmHg 75%
16:00 +16°C° 0 mm 2 mps 747 mmHg 77%
17:00 +16°C° 0.1 mm 2 mps 747 mmHg 80%
18:00 +15°C° 0.1 mm 2 mps 747 mmHg 82%
19:00 +15°C° 0.1 mm 2 mps 747 mmHg 85%
20:00 +15°C° 1.2 mm 2 mps 747 mmHg 87%
21:00 +14°C° 1.2 mm 2 mps 747 mmHg 90%
22:00 +14°C° 1.2 mm 2 mps 747 mmHg 92%
23:00 +14°C° 1 mm 2 mps 747 mmHg 92%

24 October, Saturday

Time Temperature Precipitation Wind Pressure Humidity
00:00 +14°C° 1 mm 2 mps 747 mmHg 92%
01:00 +13°C° 1 mm 1 mps 747 mmHg 93%
02:00 +13°C° 0.8 mm 2 mps 747 mmHg 93%
03:00 +13°C° 0.8 mm 2 mps 747 mmHg 93%
04:00 +12°C° 0.8 mm 3 mps 747 mmHg 93%
05:00 +12°C° 0.2 mm 3 mps 748 mmHg 92%
06:00 +11°C° 0.2 mm 4 mps 748 mmHg 91%
07:00 +11°C° 0.2 mm 4 mps 748 mmHg 90%
08:00 +10°C° 0.2 mm 5 mps 748 mmHg 86%
09:00 +11°C° 0.2 mm 6 mps 749 mmHg 82%
10:00 +11°C° 0.2 mm 7 mps 749 mmHg 78%
11:00 +12°C° 0.2 mm 7 mps 749 mmHg 76%
12:00 +12°C° 0.2 mm 7 mps 749 mmHg 74%
13:00 +12°C° 0.2 mm 7 mps 750 mmHg 72%
14:00 +11°C° 0.1 mm 6 mps 750 mmHg 71%
15:00 +12°C° 0.1 mm 5 mps 750 mmHg 71%
16:00 +11°C° 0.1 mm 4 mps 750 mmHg 70%
17:00 +10°C° 0 mm 3 mps 751 mmHg 73%
18:00 +9°C° 0 mm 2 mps 751 mmHg 77%
19:00 +8°C° 0 mm 2 mps 752 mmHg 80%
20:00 +8°C° 0 mm 2 mps 752 mmHg 81%
21:00 +8°C° 0 mm 2 mps 752 mmHg 83%
22:00 +7°C° 0 mm 2 mps 752 mmHg 84%
23:00 +7°C° 0 mm 2 mps 752 mmHg 85%

25 October, Sunday

Time Temperature Precipitation Wind Pressure Humidity
00:00 +7°C° 0 mm 2 mps 752 mmHg 86%
01:00 +7°C° 0 mm 2 mps 752 mmHg 86%
02:00 +7°C° 0 mm 2 mps 752 mmHg 88%
03:00 +8°C° 0 mm 1 mps 752 mmHg 89%
04:00 +8°C° 0 mm 1 mps 752 mmHg 91%
05:00 +8°C° 0 mm 1 mps 752 mmHg 91%
06:00 +8°C° 0 mm 1 mps 752 mmHg 91%
07:00 +8°C° 0 mm 1 mps 752 mmHg 91%
08:00 +9°C° 0 mm 1 mps 752 mmHg 86%
09:00 +10°C° 0 mm 2 mps 752 mmHg 80%
10:00 +13°C° 0 mm 2 mps 752 mmHg 74%
11:00 +14°C° 0 mm 2 mps 751 mmHg 70%
12:00 +15°C° 0 mm 2 mps 751 mmHg 66%
13:00 +16°C° 0 mm 3 mps 751 mmHg 62%
14:00 +15°C° 0 mm 2 mps 750 mmHg 66%
15:00 +14°C° 0 mm 2 mps 750 mmHg 70%
16:00 +14°C° 0 mm 2 mps 749 mmHg 73%
17:00 +13°C° 0 mm 2 mps 749 mmHg 76%
18:00 +12°C° 0 mm 2 mps 749 mmHg 80%
19:00 +10°C° 0 mm 3 mps 749 mmHg 83%
20:00 +10°C° 0 mm 3 mps 749 mmHg 84%
21:00 +9°C° 0 mm 3 mps 749 mmHg 85%
22:00 +9°C° 0 mm 3 mps 749 mmHg 86%
23:00 +9°C° 0 mm 3 mps 749 mmHg 87%

26 October, Monday

Time Temperature Precipitation Wind Pressure Humidity
00:00 +8°C° 0 mm 2 mps 749 mmHg 88%
01:00 +8°C° 0 mm 2 mps 748 mmHg 89%
02:00 +8°C° 0 mm 2 mps 748 mmHg 89%
03:00 +8°C° 0 mm 2 mps 748 mmHg 90%
04:00 +7°C° 0 mm 3 mps 747 mmHg 90%
05:00 +7°C° 0 mm 3 mps 747 mmHg 90%
06:00 +7°C° 0 mm 3 mps 747 mmHg 90%
07:00 +7°C° 0 mm 3 mps 747 mmHg 89%
08:00 +9°C° 0 mm 3 mps 747 mmHg 84%
09:00 +10°C° 0 mm 3 mps 747 mmHg 78%
10:00 +12°C° 0 mm 3 mps 746 mmHg 72%
11:00 +13°C° 0 mm 3 mps 746 mmHg 70%
12:00 +13°C° 0 mm 3 mps 746 mmHg 68%
13:00 +15°C° 0 mm 2 mps 746 mmHg 65%
14:00 +14°C° 0 mm 2 mps 746 mmHg 68%
15:00 +14°C° 0 mm 2 mps 746 mmHg 72%
16:00 +13°C° 0 mm 2 mps 746 mmHg 75%
17:00 +13°C° 0 mm 2 mps 746 mmHg 78%
18:00 +12°C° 0 mm 2 mps 746 mmHg 81%
19:00 +12°C° 0 mm 2 mps 746 mmHg 84%
20:00 +12°C° 0 mm 2 mps 746 mmHg 84%
21:00 +12°C° 0 mm 2 mps 746 mmHg 85%
22:00 +12°C° 0 mm 2 mps 747 mmHg 85%
23:00 +10°C° 0 mm 2 mps 747 mmHg 85%
Show more